This is the latest recevied weather packets stored in our database for station/object W8BS. If no packets are shown the sender has not sent any weather packets the latest 10 day(s).
| Time | Temp. | Humidity | Pressure | Rain* | Wind** | Luminosity | Snow |
|---|---|---|---|---|---|---|---|
| 1777659477 | 15.56° C | 45% | 1010.3 hPa | 0 mm | - | 612 W/m² | - |
| 1777659174 | 15° C | 48% | 1010.4 hPa | 0 mm | - | 523 W/m² | - |
| 1777658872 | 15° C | 45% | 1010.4 hPa | 0 mm | - | 415 W/m² | - |
| 1777658567 | 15.56° C | 44% | 1010.4 hPa | 0 mm | - | 817 W/m² | - |
| 1777658264 | 15° C | 46% | 1010.6 hPa | 0 mm | - | 817 W/m² | - |
| 1777657962 | 14.44° C | 52% | 1010.4 hPa | 0 mm | - | 392 W/m² | - |
| 1777657658 | 14.44° C | 53% | 1010.6 hPa | 0 mm | - | 764 W/m² | - |
| 1777657355 | 14.44° C | 52% | 1010.6 hPa | 0 mm | - | 574 W/m² | - |
| 1777657053 | 13.33° C | 53% | 1010.8 hPa | 0 mm | - | 627 W/m² | - |
| 1777656750 | 13.33° C | 55% | 1010.8 hPa | 0 mm | - | 331 W/m² | - |
| 1777656446 | 13.33° C | 53% | 1010.8 hPa | 0 mm | - | 291 W/m² | - |
| 1777656141 | 13.89° C | 53% | 1010.8 hPa | 0 mm | - | 306 W/m² | - |
| 1777655837 | 13.89° C | 52% | 1010.9 hPa | 0 mm | - | 344 W/m² | - |
| 1777655535 | 13.89° C | 54% | 1010.9 hPa | 0 mm | - | 386 W/m² | - |
| 1777655232 | 13.89° C | 54% | 1010.9 hPa | 0 mm | - | 344 W/m² | - |
| 1777654928 | 13.89° C | 55% | 1010.8 hPa | 0 mm | - | 410 W/m² | - |
| 1777654626 | 13.33° C | 53% | 1011.1 hPa | 0 mm | - | 412 W/m² | - |
| 1777654323 | 13.33° C | 52% | 1011.1 hPa | 0 mm | - | 391 W/m² | - |
| 1777654021 | 13.33° C | 51% | 1011.1 hPa | 0 mm | - | 326 W/m² | - |
| 1777653717 | 13.89° C | 53% | 1011.1 hPa | 0 mm | - | 370 W/m² | - |
| 1777653414 | 13.33° C | 54% | 1011.1 hPa | 0 mm | - | 303 W/m² | - |
| 1777653111 | 13.89° C | 56% | 1011.2 hPa | 0 mm | - | 329 W/m² | - |
| 1777652807 | 13.33° C | 56% | 1011.1 hPa | 0 mm | - | 368 W/m² | - |
| 1777652503 | 12.78° C | 57% | 1011.3 hPa | 0 mm | - | 409 W/m² | - |
| 1777652201 | 12.78° C | 53% | 1011.6 hPa | 0 mm | - | 375 W/m² | - |
* Rain latest hour (hover to see other rain measurements)
** Current wind speed in m/s (hover to see current wind gust speed)